Regional Weather Roundup
Issued by NWS San Diego, CA

Home | Current Version | Previous Version | Text Only | Print | Product List | Glossary On
Versions: 1 2 3 4 5 6 7 8 9 10 11 12 13 14 15 16 17 18 19 20 21 22 23 24 25 26 27 28 29 30 31 32 33 34 35 36 37 38 39 40 41 42 43 44 45 46 47 48 49 50
993
ASUS46 KSGX 271011
RWRSGX

SAN DIEGO HOURLY WEATHER ROUNDUP
NATIONAL WEATHER SERVICE SAN DIEGO CA
300 AM PDT SAT AUG 27 2016

NOTE: "FAIR" INDICATES FEW OR NO CLOUDS BELOW 12,000 FEET WITH NO
SIGNIFICANT WEATHER AND/OR OBSTRUCTIONS TO VISIBILITY.

CAZ042-043-060-061-PZZ750-775-271100-

GREATER SAN DIEGO AREA

CITY           SKY/WX    TMP DP  RH WIND       PRES   REMARKS
LINDBERGH FLD  CLOUDY    68  57  68 W6        29.96S
POINT LOMA       N/A     65  56  74 W6          N/A
NATIONAL CITY    N/A     68  60  76 CALM      29.96S
CHULA VISTA      N/A     67  60  80 W1        29.88S
IMPERIAL BEACH CLOUDY    69  57  65 SW5       29.96S
BROWN FIELD    CLOUDY    65  57  75 SW3       29.95F
MIRAMAR MCAS   CLOUDY    66  56  70 W3        29.96R
MONTGOMERY FLD CLOUDY    67  55  65 NE3       29.96S

$$

NORTH SAN DIEGO COUNTY

CITY           SKY/WX    TMP DP  RH WIND       PRES   REMARKS
CAMP PENDLETON CLOUDY    62  57  83 NE5       29.95S
OCEANSIDE AP   CLOUDY    66  56  70 NE3       29.94F
OCEANSIDE HBR    N/A     67  61  81 CALM      29.97F
VISTA            N/A     64  58  82 CALM      29.93F
CARLSBAD       CLOUDY    65  59  81 CALM      29.95S
DEL MAR          N/A     65  59  80 CALM      29.98S
LA JOLLA SCRIP   N/A     65  60  82 W6        29.95R
FALLBROOK        N/A     64  61  91 CALM      29.95S
ESCONDIDO        N/A     65  58  79 CALM      29.97S
SAN MARCOS       N/A     63  55  75 CALM      29.99S
POWAY            N/A     64  57  79 CALM      29.96S

$$

EAST SAN DIEGO COUNTY

CITY           SKY/WX    TMP DP  RH WIND       PRES   REMARKS
RAMONA         CLOUDY    60  54  80 CALM      29.97S
SANTEE LAKES     N/A     65  58  78 CALM      29.94S
LA MESA          N/A     64  57  79 CALM      29.88S
JAMUL            N/A     62  57  83 CALM      29.95S
DESCANSO N       N/A     53  41  62 N5        29.84F
MT. LAGUNA OBS   N/A     61  41  48 CALM      29.70S
CAMPO            N/A     48  44  86 NE3       29.95F

$$

ORANGE COUNTY AND THE LOS ANGELES BASIN

CITY           SKY/WX    TMP DP  RH WIND       PRES   REMARKS
JOHN WAYNE AP  CLOUDY    67  58  72 S3        29.95S
LAKE FOREST FR   N/A     62  55  79 CALM      29.85R
HUNTINGTON BCH   N/A     65  61  85 CALM      29.98S
LOS ALAMITOS   CLOUDY    65  58  77 CALM      29.96S
FULLERTON      CLOUDY    67  57  70 CALM      29.95S
LONG BEACH     CLOUDY    66  58  75 CALM      29.96S
L.A. AP        CLOUDY    66  59  78 CALM      29.96S
L.A. DOWNTOWN  CLOUDY    66  58  75 CALM      29.95F

$$

THE INLAND EMPIRE

CITY           SKY/WX    TMP DP  RH WIND       PRES   REMARKS
CORONA         FAIR      55  53  93 CALM      29.97S
CHINO          CLOUDY    63  57  81 W5        29.97F
ONTARIO        FAIR      61  56  83 SW6       29.96S
SAN BERNARDINO FAIR      62  56  81 SW5       29.97S
RIVERSIDE AP   MOCLDY    62  56  80 W3        29.97S
MORENO VALLEY    N/A     58  57  96 CALM      28.06S
MARCH ARB      FAIR      58  58 100 W3        29.97S
HORSETHIEF CYN   N/A     56  50  78 CALM      29.97S
PERRIS           N/A     59  57  94 SE2       29.97S
HEMET EAST       N/A     57  51  79 CALM      29.82S
FRENCH VALLEY  CLOUDY    59  55  88 CALM      29.97F
TEMECULA         N/A     62  58  90 CALM      30.03S

$$

SAN BERNARDINO AND RIVERSIDE COUNTY MOUNTAINS

CITY           SKY/WX    TMP DP  RH WIND       PRES   REMARKS
BIG BEAR AP    FAIR      41  25  52 CALM      30.20S
PINE COVE        N/A     60  41  49 CALM      29.84S

$$

SOUTHERN DESERT INCLUDING THE COACHELLA VALLEY

CITY           SKY/WX    TMP DP  RH WIND       PRES   REMARKS
PALM SPRINGS   FAIR      78  52  40 W7        29.81F
THOUSAND PALMS   N/A     79  52  38 NW22      29.76F
PALM DESERT      N/A     76  55  47 CALM        N/A
THERMAL        FAIR      78  53  41 N6        29.75R
BLYTHE         FAIR      85  55  35 S5        29.80R
IMPERIAL AP    FAIR      80  61  52 SE5       29.76S
EL CENTRO NAS  FAIR      76  50  40 SE7       29.77S
YUMA AZ        FAIR      84  63  49 E8        29.77

$$

UPPER DESERT

CITY           SKY/WX    TMP DP  RH WIND       PRES   REMARKS
VICTORVILLE AP FAIR      66  36  32 S8        29.98S
HESPERIA         N/A     62  44  51 W3        29.96R
PALMDALE       FAIR      66  39  37 SW9       29.96S
LANCASTER      FAIR      63  44  50 W7        29.95S
EDWARDS AFB    FAIR      65  36  34 S13       29.92R
DAGGETT        FAIR      73  34  23 W9        29.92R
29 PALMS N     FAIR      73  23  15 NW5       29.97S

$$

REGIONAL REPORTS

CITY           SKY/WX    TMP DP  RH WIND       PRES   REMARKS
SANTA BARBARA  FAIR      61  59  93 E6        29.93S
SANDBERG       FAIR      66  35  31 NW16      30.06F
LAS VEGAS NV   FAIR      79  49  34 E18       29.93R
PHOENIX AZ     FAIR      87  57  35 NE7       29.84R
TIJUANA        CLOUDY    64  54  68 NW3       29.98S
ENSENADA NW      N/A     65  32  29 NE6       29.93S

$$

OFFSHORE ISLANDS

CITY           SKY/WX    TMP DP  RH WIND       PRES   REMARKS
CATALINA ARPT  CLOUDY    58  55  90 SW5       29.98S
SAN NICOLAS IS CLOUDY   N/A N/A N/A W10       29.97S

$$

MARINE AND OFFSHORE BUOY REPORTS

STATION/POSITION SKY/WX   TEMP    WIND        PRES    SWELL
                          AIR SEA DIR/SP/G            HT/PER/DIR
                          (F)     (DEG/KT/KT) (MB)    (FT/S/D)
TANNER BANKS               63 64  310/ 10/ 12 1014.7F   3/200/14
S CLEMENTE BASIN           65 70  260/  2/  4 1014.3F   3/200/14
SAN NICOLAS IS.               64                N/A     3/190/13
SO. S. ROSA ISLA           62 64  310/ 16/ 19 1014.5R   3/200/14
W. S. BARBARA CH           61 60  320/ 14/ 17 1014.2F   2/190/15
M. S. BARBARA CH                  250/  2/  4 1013.8F
S. MONICA BASIN            65 71   20/  4/  6 1014.0S
S PEDRO CHANNEL               72                N/A     2/170/12
OCEANSIDE OFFSHR              68                N/A     2/190/14
TORREY PINES OTR              70                N/A     2/200/13
POINT LOMA SOUTH              71                N/A     3/190/14

$$





USA.gov is the U.S. government's official web portal to all federal, state and local government web resources and services.